Time,TemperatureF,DewpointF,PressureIn,WindDirection,WindDirectionDegrees,WindSpeedMPH,WindSpeedGustMPH,Humidity,HourlyPrecipIn,Conditions,Clouds,dailyrainin,SolarRadiationWatts/m^2,SoftwareType,DateUTC
2013-09-04 00:00:00,61.5,58.2,29.88,NW,319,0.0,0.0,89,0.00,,,0.00,0,Wunderground v.1.15,2013-09-04 04:00:00,
2013-09-04 00:10:00,61.7,58.4,29.88,NW,319,0.0,0.0,89,0.00,,,0.00,0,Wunderground v.1.15,2013-09-04 04:10:00,
2013-09-04 00:20:00,61.9,58.6,29.88,NW,319,0.0,0.0,89,0.00,,,0.00,0,Wunderground v.1.15,2013-09-04 04:20:00,
2013-09-04 00:30:00,62.0,58.7,29.89,NW,319,0.0,0.0,89,0.00,,,0.00,0,Wunderground v.1.15,2013-09-04 04:30:00,
2013-09-04 00:40:00,62.0,58.4,29.89,NW,319,0.0,0.0,88,0.00,,,0.00,0,Wunderground v.1.15,2013-09-04 04:40:00,
2013-09-04 00:50:00,62.1,58.8,29.89,NW,319,0.0,0.0,89,0.00,,,0.00,0,Wunderground v.1.15,2013-09-04 04:50:00,
2013-09-04 01:00:00,62.2,58.9,29.89,NW,319,0.0,0.0,89,0.00,,,0.00,0,Wunderground v.1.15,2013-09-04 05:00:00,
2013-09-04 01:10:00,62.2,58.9,29.89,NW,319,0.0,0.0,89,0.00,,,0.00,0,Wunderground v.1.15,2013-09-04 05:10:00,
2013-09-04 01:20:00,62.3,58.7,29.89,NW,319,0.0,0.0,88,0.00,,,0.00,0,Wunderground v.1.15,2013-09-04 05:20:00,
2013-09-04 01:30:00,62.6,59.0,29.89,NW,312,0.0,0.0,88,0.00,,,0.00,0,Wunderground v.1.15,2013-09-04 05:30:00,
2013-09-04 01:40:00,62.5,58.6,29.88,NW,312,0.0,0.0,87,0.00,,,0.00,0,Wunderground v.1.15,2013-09-04 05:40:00,
2013-09-04 01:50:00,62.3,58.4,29.88,NW,312,0.0,0.0,87,0.00,,,0.00,0,Wunderground v.1.15,2013-09-04 05:50:00,
2013-09-04 02:00:00,62.2,58.3,29.88,NW,319,1.0,1.0,87,0.00,,,0.00,0,Wunderground v.1.15,2013-09-04 06:00:00,
2013-09-04 02:10:00,62.2,58.3,29.89,South,180,0.0,0.0,87,0.00,,,0.00,0,Wunderground v.1.15,2013-09-04 06:10:00,
2013-09-04 02:20:00,62.1,58.2,29.88,WNW,297,0.0,0.0,87,0.00,,,0.00,0,Wunderground v.1.15,2013-09-04 06:20:00,
2013-09-04 02:30:00,61.9,58.0,29.88,WNW,299,1.0,1.0,87,0.00,,,0.00,0,Wunderground v.1.15,2013-09-04 06:30:00,
2013-09-04 02:40:00,62.0,58.1,29.89,NNW,336,2.0,5.0,87,0.00,,,0.00,0,Wunderground v.1.15,2013-09-04 06:40:00,
2013-09-04 02:50:00,62.4,57.8,29.88,NW,323,2.0,2.0,85,0.00,,,0.00,0,Wunderground v.1.15,2013-09-04 06:50:00,
2013-09-04 03:00:00,62.7,58.1,29.89,WNW,290,2.0,2.0,85,0.00,,,0.00,0,Wunderground v.1.15,2013-09-04 07:00:00,
2013-09-04 03:10:00,62.9,58.3,29.89,West,277,2.0,2.0,85,0.00,,,0.00,0,Wunderground v.1.15,2013-09-04 07:10:00,
2013-09-04 03:20:00,63.1,58.2,29.89,NW,314,2.0,2.0,84,0.00,,,0.00,0,Wunderground v.1.15,2013-09-04 07:20:00,
2013-09-04 03:30:00,63.4,58.5,29.89,NW,311,1.0,1.0,84,0.00,,,0.00,0,Wunderground v.1.15,2013-09-04 07:30:00,
2013-09-04 03:40:00,63.5,58.6,29.89,NW,322,1.0,1.0,84,0.00,,,0.00,0,Wunderground v.1.15,2013-09-04 07:40:00,
2013-09-04 03:50:00,63.5,58.2,29.90,WNW,300,1.0,1.0,83,0.00,,,0.00,0,Wunderground v.1.15,2013-09-04 07:50:00,
2013-09-04 04:00:00,63.2,58.3,29.90,WNW,299,0.0,0.0,84,0.00,,,0.00,0,Wunderground v.1.15,2013-09-04 08:00:00,
2013-09-04 04:10:00,62.9,58.0,29.90,West,281,0.0,0.0,84,0.00,,,0.00,0,Wunderground v.1.15,2013-09-04 08:10:00,
2013-09-04 04:20:00,62.5,57.9,29.91,NW,311,1.0,1.0,85,0.00,,,0.00,0,Wunderground v.1.15,2013-09-04 08:20:00,
2013-09-04 04:30:00,62.1,57.9,29.91,NW,324,0.0,0.0,86,0.00,,,0.00,0,Wunderground v.1.15,2013-09-04 08:30:00,
2013-09-04 04:40:00,61.7,57.5,29.92,NW,324,0.0,0.0,86,0.00,,,0.00,0,Wunderground v.1.15,2013-09-04 08:40:00,
2013-09-04 04:50:00,61.2,57.0,29.92,NW,324,0.0,0.0,86,0.00,,,0.00,0,Wunderground v.1.15,2013-09-04 08:50:00,
2013-09-04 05:00:00,60.8,57.2,29.92,NW,324,0.0,0.0,88,0.00,,,0.00,0,Wunderground v.1.15,2013-09-04 09:00:00,
2013-09-04 05:10:00,60.5,56.9,29.92,NW,324,0.0,0.0,88,0.00,,,0.00,0,Wunderground v.1.15,2013-09-04 09:10:00,
2013-09-04 05:20:00,60.1,56.5,29.92,NW,324,0.0,0.0,88,0.00,,,0.00,0,Wunderground v.1.15,2013-09-04 09:20:00,
2013-09-04 05:30:00,59.6,56.0,29.93,NW,324,0.0,0.0,88,0.00,,,0.00,0,Wunderground v.1.15,2013-09-04 09:30:00,
2013-09-04 05:40:00,59.3,56.1,29.93,NW,324,0.0,0.0,89,0.00,,,0.00,0,Wunderground v.1.15,2013-09-04 09:40:00,
2013-09-04 05:50:00,59.0,55.8,29.93,NW,324,0.0,0.0,89,0.00,,,0.00,0,Wunderground v.1.15,2013-09-04 09:50:00,
2013-09-04 06:00:00,58.7,55.8,29.93,NW,324,0.0,0.0,90,0.00,,,0.00,0,Wunderground v.1.15,2013-09-04 10:00:00,
2013-09-04 06:10:00,58.5,55.6,29.93,NW,325,0.0,0.0,90,0.00,,,0.00,0,Wunderground v.1.15,2013-09-04 10:10:00,
2013-09-04 06:20:00,58.3,55.4,29.93,NW,323,0.0,0.0,90,0.00,,,0.00,0,Wunderground v.1.15,2013-09-04 10:20:00,
2013-09-04 06:30:00,58.0,55.4,29.94,NW,323,0.0,0.0,91,0.00,,,0.00,0,Wunderground v.1.15,2013-09-04 10:30:00,
2013-09-04 06:40:00,57.8,55.2,29.95,NW,323,0.0,0.0,91,0.00,,,0.00,7,Wunderground v.1.15,2013-09-04 10:40:00,
2013-09-04 06:50:00,57.6,55.0,29.95,NW,326,0.0,0.0,91,0.00,,,0.00,12,Wunderground v.1.15,2013-09-04 10:50:00,
2013-09-04 07:00:00,57.7,55.4,29.95,NW,322,0.0,0.0,92,0.00,,,0.00,21,Wunderground v.1.15,2013-09-04 11:00:00,
2013-09-04 07:10:00,57.8,55.5,29.95,North,360,0.0,0.0,92,0.00,,,0.00,26,Wunderground v.1.15,2013-09-04 11:10:00,
2013-09-04 07:20:00,58.0,55.7,29.95,NW,323,0.0,0.0,92,0.00,,,0.00,28,Wunderground v.1.15,2013-09-04 11:20:00,
2013-09-04 07:30:00,58.4,56.4,29.95,NW,323,0.0,0.0,93,0.00,,,0.00,32,Wunderground v.1.15,2013-09-04 11:30:00,
2013-09-04 07:40:00,58.9,56.9,29.96,NW,326,0.0,0.0,93,0.00,,,0.00,35,Wunderground v.1.15,2013-09-04 11:40:00,
2013-09-04 07:50:00,59.5,57.5,29.96,West,275,0.0,0.0,93,0.00,,,0.00,42,Wunderground v.1.15,2013-09-04 11:50:00,
2013-09-04 08:00:00,60.4,58.7,29.96,SSW,202,0.0,0.0,94,0.00,,,0.00,42,Wunderground v.1.15,2013-09-04 12:00:00,
2013-09-04 08:10:00,61.0,59.0,29.97,SE,143,0.0,0.0,93,0.00,,,0.00,40,Wunderground v.1.15,2013-09-04 12:10:00,
2013-09-04 08:20:00,61.6,59.6,29.97,SSE,155,0.0,0.0,93,0.00,,,0.00,44,Wunderground v.1.15,2013-09-04 12:20:00,
2013-09-04 08:30:00,62.1,59.7,29.97,SSE,159,0.0,0.0,92,0.00,,,0.00,44,Wunderground v.1.15,2013-09-04 12:30:00,
2013-09-04 08:40:00,62.5,59.8,29.97,SSE,163,0.0,1.0,91,0.00,,,0.00,63,Wunderground v.1.15,2013-09-04 12:40:00,
2013-09-04 08:50:00,63.2,60.2,29.97,South,188,0.0,0.0,90,0.00,,,0.00,81,Wunderground v.1.15,2013-09-04 12:50:00,
2013-09-04 09:00:00,63.9,58.6,29.97,NNW,334,1.0,2.0,83,0.00,,,0.00,70,Wunderground v.1.15,2013-09-04 13:00:00,
2013-09-04 09:10:00,64.7,60.1,29.97,WSW,252,1.0,1.0,85,0.00,,,0.00,336,Wunderground v.1.15,2013-09-04 13:10:00,
2013-09-04 09:20:00,65.4,58.4,29.97,NNW,339,2.0,4.0,78,0.00,,,0.00,172,Wunderground v.1.15,2013-09-04 13:20:00,
2013-09-04 09:30:00,66.2,60.2,29.97,South,189,1.0,1.0,81,0.00,,,0.00,141,Wunderground v.1.15,2013-09-04 13:30:00,
2013-09-04 09:40:00,66.5,59.1,29.97,WSW,244,1.0,2.0,77,0.00,,,0.00,480,Wunderground v.1.15,2013-09-04 13:40:00,
2013-09-04 09:50:00,66.9,60.2,29.97,NNW,345,1.0,2.0,79,0.00,,,0.00,204,Wunderground v.1.15,2013-09-04 13:50:00,
2013-09-04 10:00:00,67.5,58.9,29.97,NNE,29,2.0,3.0,74,0.00,,,0.00,591,Wunderground v.1.15,2013-09-04 14:00:00,
2013-09-04 10:10:00,68.3,58.1,29.97,West,270,2.0,9.0,70,0.00,,,0.00,606,Wunderground v.1.15,2013-09-04 14:10:00,
2013-09-04 10:20:00,69.1,60.5,29.97,NNW,340,2.0,2.0,74,0.00,,,0.00,682,Wunderground v.1.15,2013-09-04 14:20:00,
2013-09-04 10:30:00,69.8,58.3,29.97,ENE,76,2.0,2.0,67,0.00,,,0.00,691,Wunderground v.1.15,2013-09-04 14:30:00,
2013-09-04 10:40:00,70.1,58.6,29.96,NNW,331,2.0,6.0,67,0.00,,,0.00,733,Wunderground v.1.15,2013-09-04 14:40:00,
2013-09-04 10:50:00,70.5,60.2,29.96,WNW,282,1.0,1.0,70,0.00,,,0.00,777,Wunderground v.1.15,2013-09-04 14:50:00,
2013-09-04 11:00:00,70.9,61.0,29.96,NNW,329,1.0,1.0,71,0.00,,,0.00,759,Wunderground v.1.15,2013-09-04 15:00:00,
2013-09-04 11:10:00,71.4,61.5,29.96,North,360,2.0,4.0,71,0.00,,,0.00,793,Wunderground v.1.15,2013-09-04 15:10:00,
2013-09-04 11:20:00,71.7,59.3,29.95,NNW,346,3.0,3.0,65,0.00,,,0.00,749,Wunderground v.1.15,2013-09-04 15:20:00,
2013-09-04 11:30:00,72.2,56.6,29.95,WNW,284,3.0,3.0,58,0.00,,,0.00,772,Wunderground v.1.15,2013-09-04 15:30:00,
2013-09-04 11:40:00,72.7,58.0,29.95,SSW,209,2.0,3.0,60,0.00,,,0.00,795,Wunderground v.1.15,2013-09-04 15:40:00,
2013-09-04 11:50:00,73.3,57.6,29.95,NNW,343,4.0,4.0,58,0.00,,,0.00,788,Wunderground v.1.15,2013-09-04 15:50:00,
2013-09-04 12:00:00,73.8,60.0,29.95,North,360,2.0,3.0,62,0.00,,,0.00,798,Wunderground v.1.15,2013-09-04 16:00:00,
2013-09-04 12:10:00,74.1,56.9,29.95,WNW,292,3.0,3.0,55,0.00,,,0.00,805,Wunderground v.1.15,2013-09-04 16:10:00,
2013-09-04 12:20:00,74.5,57.3,29.95,North,360,3.0,3.0,55,0.00,,,0.00,810,Wunderground v.1.15,2013-09-04 16:20:00,
2013-09-04 12:30:00,74.8,56.0,29.94,NW,317,3.0,3.0,52,0.00,,,0.00,814,Wunderground v.1.15,2013-09-04 16:30:00,
2013-09-04 12:40:00,75.4,58.1,29.94,West,278,2.0,2.0,55,0.00,,,0.00,816,Wunderground v.1.15,2013-09-04 16:40:00,
2013-09-04 12:50:00,75.5,57.2,29.94,NNW,348,2.0,2.0,53,0.00,,,0.00,812,Wunderground v.1.15,2013-09-04 16:50:00,
2013-09-04 13:00:00,76.0,58.7,29.93,West,264,2.0,2.0,55,0.00,,,0.00,812,Wunderground v.1.15,2013-09-04 17:00:00,
2013-09-04 13:10:00,76.7,60.8,29.94,WSW,250,2.0,2.0,58,0.00,,,0.00,810,Wunderground v.1.15,2013-09-04 17:10:00,
2013-09-04 13:20:00,77.0,61.1,29.94,WNW,282,2.0,2.0,58,0.00,,,0.00,805,Wunderground v.1.15,2013-09-04 17:20:00,
2013-09-04 13:30:00,76.9,54.5,29.94,West,280,3.0,6.0,46,0.00,,,0.00,798,Wunderground v.1.15,2013-09-04 17:30:00,
2013-09-04 13:40:00,77.2,59.3,29.94,NW,318,2.0,3.0,54,0.00,,,0.00,795,Wunderground v.1.15,2013-09-04 17:40:00,
2013-09-04 13:50:00,77.2,58.7,29.93,SSW,197,3.0,3.0,53,0.00,,,0.00,777,Wunderground v.1.15,2013-09-04 17:50:00,
2013-09-04 14:00:00,76.7,55.0,29.93,West,271,2.0,2.0,47,0.00,,,0.00,54,Wunderground v.1.15,2013-09-04 18:00:00,
2013-09-04 14:10:00,76.2,53.9,29.93,West,271,2.0,6.0,46,0.00,,,0.00,54,Wunderground v.1.15,2013-09-04 18:10:00,
2013-09-04 14:20:00,76.0,54.3,29.93,WNW,296,2.0,4.0,47,0.00,,,0.00,62,Wunderground v.1.15,2013-09-04 18:20:00,
2013-09-04 14:30:00,75.7,59.4,29.93,SW,215,1.0,3.0,57,0.00,,,0.00,213,Wunderground v.1.15,2013-09-04 18:30:00,
2013-09-04 14:40:00,75.6,55.1,29.93,West,264,2.0,2.0,49,0.00,,,0.00,105,Wunderground v.1.15,2013-09-04 18:40:00,
2013-09-04 14:50:00,76.0,55.5,29.92,NW,311,3.0,9.0,49,0.00,,,0.00,47,Wunderground v.1.15,2013-09-04 18:50:00,
2013-09-04 15:01:00,76.1,59.3,29.92,NNW,341,3.0,3.0,56,0.00,,,0.00,49,Wunderground v.1.15,2013-09-04 19:01:00,
2013-09-04 15:10:00,75.7,57.9,29.92,WNW,296,2.0,8.0,54,0.00,,,0.00,46,Wunderground v.1.15,2013-09-04 19:10:00,
2013-09-04 15:20:00,76.0,56.6,29.92,NNE,19,4.0,4.0,51,0.00,,,0.00,47,Wunderground v.1.15,2013-09-04 19:20:00,
2013-09-04 15:30:00,75.8,59.5,29.92,SW,225,2.0,2.0,57,0.00,,,0.00,53,Wunderground v.1.15,2013-09-04 19:30:00,
2013-09-04 15:40:00,75.1,54.1,29.92,North,350,2.0,5.0,48,0.00,,,0.00,53,Wunderground v.1.15,2013-09-04 19:40:00,
2013-09-04 15:50:00,75.8,55.8,29.92,NNW,339,4.0,4.0,50,0.00,,,0.00,40,Wunderground v.1.15,2013-09-04 19:50:00,
2013-09-04 16:00:00,76.2,54.5,29.92,NW,325,3.0,3.0,47,0.00,,,0.00,37,Wunderground v.1.15,2013-09-04 20:00:00,
2013-09-04 16:10:00,75.7,57.9,29.92,NW,304,2.0,2.0,54,0.00,,,0.00,40,Wunderground v.1.15,2013-09-04 20:10:00,
2013-09-04 16:20:00,74.8,56.5,29.92,NW,304,1.0,5.0,53,0.00,,,0.00,33,Wunderground v.1.15,2013-09-04 20:20:00,
2013-09-04 16:30:00,74.4,58.7,29.92,West,269,2.0,2.0,58,0.00,,,0.00,37,Wunderground v.1.15,2013-09-04 20:30:00,
2013-09-04 16:40:00,73.5,57.3,29.92,North,11,1.0,2.0,57,0.00,,,0.00,32,Wunderground v.1.15,2013-09-04 20:40:00,
2013-09-04 16:50:00,73.2,58.0,29.92,West,270,2.0,7.0,59,0.00,,,0.00,30,Wunderground v.1.15,2013-09-04 20:50:00,
2013-09-04 17:00:00,73.5,56.3,29.92,West,281,2.0,2.0,55,0.00,,,0.00,28,Wunderground v.1.15,2013-09-04 21:00:00,
2013-09-04 17:10:00,73.5,54.3,29.91,North,350,1.0,2.0,51,0.00,,,0.00,26,Wunderground v.1.15,2013-09-04 21:10:00,
2013-09-04 17:20:00,74.2,58.5,29.91,SW,217,3.0,3.0,58,0.00,,,0.00,26,Wunderground v.1.15,2013-09-04 21:20:00,
2013-09-04 17:30:00,74.3,55.0,29.92,NW,319,3.0,3.0,51,0.00,,,0.00,25,Wunderground v.1.15,2013-09-04 21:30:00,
2013-09-04 17:40:00,74.3,58.1,29.92,NW,324,1.0,1.0,57,0.00,,,0.00,23,Wunderground v.1.15,2013-09-04 21:40:00,
2013-09-04 17:50:00,73.8,55.1,29.92,North,11,2.0,2.0,52,0.00,,,0.00,21,Wunderground v.1.15,2013-09-04 21:50:00,
2013-09-04 18:00:00,74.3,55.5,29.92,NW,313,2.0,2.0,52,0.00,,,0.00,21,Wunderground v.1.15,2013-09-04 22:00:00,
2013-09-04 18:10:00,74.4,55.6,29.92,NNW,332,2.0,2.0,52,0.00,,,0.00,19,Wunderground v.1.15,2013-09-04 22:10:00,
2013-09-04 18:20:00,74.1,56.9,29.92,WNW,301,1.0,1.0,55,0.00,,,0.00,18,Wunderground v.1.15,2013-09-04 22:20:00,
2013-09-04 18:30:00,73.7,54.4,29.92,NW,306,1.0,1.0,51,0.00,,,0.00,16,Wunderground v.1.15,2013-09-04 22:30:00,
2013-09-04 18:40:00,73.3,55.6,29.92,NW,305,0.0,0.0,54,0.00,,,0.00,14,Wunderground v.1.15,2013-09-04 22:40:00,
2013-09-04 18:50:00,72.7,56.6,29.92,North,360,1.0,1.0,57,0.00,,,0.00,12,Wunderground v.1.15,2013-09-04 22:50:00,
2013-09-04 19:00:00,72.1,56.0,29.92,NW,315,1.0,1.0,57,0.00,,,0.00,9,Wunderground v.1.15,2013-09-04 23:00:00,
2013-09-04 19:10:00,71.6,56.0,29.92,NNW,335,0.0,0.0,58,0.00,,,0.00,5,Wunderground v.1.15,2013-09-04 23:10:00,
2013-09-04 19:20:00,70.9,56.8,29.92,NNW,336,0.0,0.0,61,0.00,,,0.00,0,Wunderground v.1.15,2013-09-04 23:20:00,
2013-09-04 19:30:00,69.9,56.7,29.92,NNW,333,0.0,0.0,63,0.00,,,0.00,0,Wunderground v.1.15,2013-09-04 23:30:00,
2013-09-04 19:40:00,68.8,56.1,29.92,NNW,333,0.0,0.0,64,0.00,,,0.00,0,Wunderground v.1.15,2013-09-04 23:40:00,
2013-09-04 19:50:00,67.7,56.3,29.92,NNW,336,0.0,0.0,67,0.00,,,0.00,0,Wunderground v.1.15,2013-09-04 23:50:00,
2013-09-04 20:00:00,66.6,56.1,29.93,NNW,334,0.0,0.0,69,0.00,,,0.00,0,Wunderground v.1.15,2013-09-05 00:00:00,
2013-09-04 20:10:00,65.9,56.2,29.93,NNW,334,0.0,0.0,71,0.00,,,0.00,0,Wunderground v.1.15,2013-09-05 00:10:00,
2013-09-04 20:20:00,65.2,56.3,29.93,NNW,336,0.0,0.0,73,0.00,,,0.00,0,Wunderground v.1.15,2013-09-05 00:20:00,
2013-09-04 20:30:00,64.5,56.4,29.93,NNW,336,0.0,0.0,75,0.00,,,0.00,0,Wunderground v.1.15,2013-09-05 00:30:00,
2013-09-04 20:40:00,64.0,56.6,29.93,NNW,335,0.0,0.0,77,0.00,,,0.00,0,Wunderground v.1.15,2013-09-05 00:40:00,
2013-09-04 20:50:00,63.5,56.9,29.93,NNW,337,0.0,0.0,79,0.00,,,0.00,0,Wunderground v.1.15,2013-09-05 00:50:00,
2013-09-04 21:00:00,63.1,56.5,29.94,NNW,335,0.0,0.0,79,0.00,,,0.00,0,Wunderground v.1.15,2013-09-05 01:00:00,
2013-09-04 21:10:00,62.8,56.5,29.94,NNW,338,0.0,0.0,80,0.00,,,0.00,0,Wunderground v.1.15,2013-09-05 01:10:00,
2013-09-04 21:20:00,62.7,57.1,29.94,NNW,336,0.0,0.0,82,0.00,,,0.00,0,Wunderground v.1.15,2013-09-05 01:20:00,
2013-09-04 21:30:00,62.4,56.5,29.94,NNW,334,0.0,0.0,81,0.00,,,0.00,0,Wunderground v.1.15,2013-09-05 01:30:00,
2013-09-04 21:40:00,62.2,56.6,29.93,NNW,336,0.0,0.0,82,0.00,,,0.00,0,Wunderground v.1.15,2013-09-05 01:40:00,
2013-09-04 21:50:00,61.9,56.7,29.94,NNW,336,0.0,0.0,83,0.00,,,0.00,0,Wunderground v.1.15,2013-09-05 01:50:00,
2013-09-04 22:00:00,61.6,56.7,29.94,NNW,338,0.0,0.0,84,0.00,,,0.00,0,Wunderground v.1.15,2013-09-05 02:00:00,
2013-09-04 22:10:00,61.6,57.4,29.94,NNW,334,0.0,0.0,86,0.00,,,0.00,0,Wunderground v.1.15,2013-09-05 02:10:00,
2013-09-04 22:20:00,61.7,57.1,29.94,NNW,336,0.0,0.0,85,0.00,,,0.00,0,Wunderground v.1.15,2013-09-05 02:20:00,
2013-09-04 22:30:00,61.6,57.4,29.94,NNW,334,0.0,0.0,86,0.00,,,0.00,0,Wunderground v.1.15,2013-09-05 02:30:00,
2013-09-04 22:40:00,61.5,57.3,29.93,North,360,0.0,0.0,86,0.00,,,0.00,0,Wunderground v.1.15,2013-09-05 02:40:00,
2013-09-04 22:50:00,61.5,57.6,29.93,NNW,334,0.0,0.0,87,0.00,,,0.00,0,Wunderground v.1.15,2013-09-05 02:50:00,
2013-09-04 23:00:00,61.4,57.5,29.93,NNW,336,0.0,0.0,87,0.00,,,0.00,0,Wunderground v.1.15,2013-09-05 03:00:00,
2013-09-04 23:10:00,61.4,57.2,29.93,NNW,336,0.0,0.0,86,0.00,,,0.00,0,Wunderground v.1.15,2013-09-05 03:10:00,
2013-09-04 23:20:00,61.3,57.4,29.93,NNW,336,0.0,0.0,87,0.00,,,0.00,0,Wunderground v.1.15,2013-09-05 03:20:00,
2013-09-04 23:30:00,61.2,57.6,29.93,NNW,336,0.0,0.0,88,0.00,,,0.00,0,Wunderground v.1.15,2013-09-05 03:30:00,
2013-09-04 23:40:00,61.2,57.6,29.93,NNW,336,0.0,0.0,88,0.00,,,0.00,0,Wunderground v.1.15,2013-09-05 03:40:00,
2013-09-04 23:50:00,61.2,57.6,29.92,NNW,336,0.0,0.0,88,0.00,,,0.00,0,Wunderground v.1.15,2013-09-05 03:50:00,